Location: Mason Neck State Park
(38.6428°N, 77.1981°W)
Time: 05:47:34
(UTC-04:00)

Daily predictions for brighter satellites

Satellite Brightness Start Highest point End
(mag) Time Altitude Azimuth Time Altitude Azimuth Time Altitude Azimuth
NOSS 2-3 (D) 4.3 00:05:33 48° WSW 00:06:42 62° NW 00:12:15 10° NNE
Cosmos 389 Rocket 4.1 00:04:35 10° NNW 00:06:44 34° NNW 00:06:44 34° NNW
Terra 3.5 00:09:58 22° WSW 00:10:27 23° W 00:14:11 10° NW
In-Cosmos 22 Rocket 4.1 00:11:15 73° SSW 00:11:48 84° W 00:17:37 10° N
Okean 1-7 3.6 00:08:44 10° NNW 00:12:15 52° NW 00:12:15 52° NW
ALOS 2 3.6 00:13:37 39° NE 00:13:37 39° NE 00:17:10 10° N
Cosmos 158 Rocket 3.9 00:08:13 10° NNW 00:13:25 82° NE 00:13:25 82° NE
Uosat 12 SS-18 rocket 4.4 00:16:26 74° N 00:16:26 74° N 00:20:35 10° NNE
Meteor 2-3 Rocket 3.6 00:17:03 74° SSW 00:17:34 83° W 00:23:18 10° N
SL-08 ROCKET BODY 4.3 00:23:36 72° S 00:24:17 90° WNW 00:30:29 10° N
Meteor 2-10 Rocket 3.7 00:22:41 10° N 00:28:21 73° E 00:28:33 72° E
Cosmos 2263 Rocket 3.6 00:29:48 25° E 00:29:48 25° E 00:33:24 10° NE
Meteor 1-10 Rocket 4.4 00:27:07 10° N 00:33:02 64° E 00:33:24 63° E
Cosmos 921 Rocket 4.2 00:37:04 36° NE 00:37:04 36° NE 00:39:41 10° NNE
Lacrosse 4 Rocket 3.6 00:37:53 10° NW 00:40:03 20° W 00:40:03 20° W
Cosmos 1674 Rocket 4.3 00:39:01 10° N 00:42:28 51° NNE 00:42:28 51° NNE
Cosmos 1607 3.8 00:38:54 10° NNW 00:45:05 75° ENE 00:45:42 68° ESE
Cosmos 2074 Rocket 4.5 00:45:00 45° WSW 00:46:13 51° W 00:52:21 10° N
SL-16 R/B 3.6 00:41:48 10° NW 00:46:17 26° W 00:46:17 26° W
ATLAS 3B R/B 3.5 00:40:27 10° NW 00:46:28 34° WSW 00:46:35 34° WSW
Cosmos 1610 Rocket 4.4 00:46:43 68° SW 00:47:19 73° W 00:53:27 10° N
Nadezhda 3 Rocket 3.9 00:43:35 10° N 00:49:49 75° E 00:50:20 70° ESE
CZ-2C R/B 3.4 00:45:57 10° NNE 00:50:05 38° ENE 00:50:05 38° ENE
Cosmos 44 4.0 00:57:49 51° WNW 00:58:22 54° NW 01:03:43 10° NNE
Cosmos 1782 4.2 00:56:39 10° N 00:59:07 37° NNW 00:59:07 37° NNW
Cosmos 1908 Rocket 4.5 01:02:05 44° NNE 01:02:05 44° NNE 01:05:09 10° NNE
USA 238 DEB 3.8 00:54:50 10° NW 01:01:44 60° WSW 01:02:06 59° SW
USA 238 3.7 00:54:56 10° NW 01:01:50 61° WSW 01:02:13 60° SW
Cosmos 1943 3.2 01:02:18 10° NNW 01:07:59 70° ENE 01:08:08 70° ENE
Landsat 5 4.5 01:10:53 46° NW 01:10:53 46° NW 01:14:17 10° NNW
BREEZE-M DEB (TANK) 3.5 01:04:01 10° NW 01:09:06 44° NNW 01:09:06 44° NNW
Geosat 4.3 01:05:19 10° NNE 01:09:37 61° ENE 01:09:37 61° ENE
Cosmos 1295 Rocket 4.4 01:17:48 73° SE 01:18:14 77° E 01:24:35 10° N
Cosmos 2154 Rocket 4.2 01:17:41 56° WSW 01:18:23 59° W 01:24:35 10° N
H-2A R/B 4.0 01:15:28 10° N 01:18:48 32° WNW 01:18:48 32° WNW
SeaSat 1 3.9 01:23:17 27° WNW 01:23:17 27° WNW 01:26:19 10° NW
Cosmos 1606 4.4 01:19:24 10° N 01:21:35 32° NNW 01:21:35 32° NNW
Meteor 1-27 Rocket 3.7 01:20:17 10° NNW 01:26:02 77° W 01:26:02 77° W
Helios 1A Rocket 4.1 01:23:45 10° N 01:26:47 39° NNW 01:26:47 39° NNW
RESURS DK-1 3.7 01:32:36 36° NE 01:32:36 36° NE 01:35:10 10° NNE
Cosmos 1408 4.4 01:33:18 32° N 01:33:18 32° N 01:35:25 10° N
CZ-4C R/B 2.8 01:25:16 10° NW 01:32:28 73° WSW 01:33:37 63° S
CZ-4B R/B 4.4 01:37:17 12° NW 01:37:17 12° NW 01:37:37 10° NW
Cosmos 1624 Rocket 4.5 01:35:46 50° E 01:35:46 50° E 01:40:18 10° NNE
NOSS 3-2 (C) 4.0 01:27:56 10° NNW 01:35:32 84° ENE 01:38:05 49° SE
Meteor 2-13 Rocket 4.3 01:40:08 72° WSW 01:40:32 75° W 01:46:42 10° N
Cosmos 1867 3.5 01:40:06 10° NNW 01:45:23 83° NNW 01:45:23 83° NNW
CZ-2C R/B 3.1 01:47:42 84° SSE 01:47:55 89° ENE 01:53:33 10° NNW
Cosmos 1959 Rocket 4.3 01:53:04 72° SW 01:53:40 80° W 01:59:54 10° N
Cosmos 1825 4.1 01:57:17 26° NW 01:57:17 26° NW 01:59:23 10° NNW
NOSS 3-4 (A) 4.1 01:54:26 39° W 01:56:22 50° NW 02:02:45 10° NNE
NOSS 3-4 (C) 4.1 01:54:33 39° W 01:56:27 51° NW 02:02:51 10° NNE
NOSS 3-2 (A) 4.0 01:49:39 10° NW 01:57:08 63° WSW 01:58:20 57° SSW
SL-08 R/B 4.4 01:57:58 70° SW 01:58:36 76° W 02:04:56 10° N
SL-8 Rocket 4.2 02:00:20 55° WSW 02:01:04 58° W 02:07:19 10° N
BREEZE-M DEB (TANK) 3.7 01:52:47 10° WNW 02:04:53 87° SSW 02:05:38 67° SE
Meteor 2-8 Rocket 4.4 01:59:14 10° N 02:05:20 77° E 02:06:14 64° SE
Cosmos 1242 Rocket 4.4 02:03:45 10° N 02:05:38 29° N 02:05:38 29° N
Cosmos 1844 Rocket 3.4 02:08:12 39° ESE 02:08:29 39° ESE 02:13:44 10° NE
Cosmos 1339 Rocket 4.4 02:03:51 10° N 02:09:57 77° E 02:10:56 62° SE
Gbstr 26 Del rocket 4.2 02:13:30 32° ENE 02:13:30 32° ENE 02:15:40 10° ENE
Cosmos 2263 Rocket 3.0 02:11:29 37° W 02:12:25 40° WNW 02:17:45 10° N
Cosmos 1812 4.3 02:09:05 10° NNE 02:12:12 31° ENE 02:12:12 31° ENE
Cosmos 2218 Rocket 4.2 02:14:09 51° WSW 02:14:58 55° W 02:21:11 10° N
Okean 2 Rocket 4.4 02:15:39 32° WNW 02:15:39 32° WNW 02:19:07 10° NNW
Cosmos 1190 Rocket 3.8 02:18:07 10° NNW 02:23:22 86° ENE 02:23:35 82° SE
Cosmos 2366 rocket 4.3 02:24:58 48° WSW 02:25:47 51° W 02:31:49 10° N
Cosmos 1844 4.4 02:25:12 39° SE 02:25:58 41° ESE 02:31:18 10° NE
ATLAS 5 CENTAUR R/B 4.5 02:23:33 10° N 02:28:25 25° NE 02:33:32 10° E
Cosmos 967 Rocket 4.4 02:27:34 62° SSW 02:28:48 90° WNW 02:35:19 10° NNE
Cosmos 1300 Rocket 4.0 02:29:48 54° E 02:29:48 54° E 02:33:51 10° NNE
CZ-2C R/B 4.1 02:26:49 10° NNW 02:30:50 23° WNW 02:31:36 22° W
Cosmos 2056 Rocket 3.9 02:32:51 47° W 02:33:16 48° WNW 02:38:22 10° N
Cosmos 407 Rocket 3.3 02:30:54 10° NNW 02:36:05 89° ENE 02:36:34 75° SSE
Cosmos 2278 Rocket 3.2 02:36:48 31° SE 02:38:01 34° ESE 02:43:04 10° NE
Cosmos 724 4.3 02:36:00 10° NNW 02:42:11 88° ENE 02:44:32 41° SSE
NOSS 2-2 (E) 3.9 02:43:13 56° E 02:43:13 56° E 02:47:33 10° NE
AQUA 4.3 02:40:19 10° NNE 02:44:55 48° E 02:45:34 45° SE
Cosmos 1536 Rocket 4.2 02:41:00 10° NNW 02:44:35 46° WNW 02:44:35 46° WNW
COSMOS 2406 3.1 02:40:06 10° NNW 02:45:52 75° WSW 02:46:47 61° S
Cosmos 676 Rocket 3.9 02:42:32 10° NNW 02:47:44 85° ENE 02:48:42 60° SSE
Cosmos 1461 3.6 02:50:09 49° ESE 02:50:18 49° ESE 02:54:47 10° NE
Okean 1 3.5 02:47:05 10° N 02:50:39 70° N 02:50:39 70° N
SL-27 R/B 3.8 02:52:36 10° NNW 02:54:52 34° NW 02:54:52 34° NW
Iridium 4 Rocket 3.9 02:52:26 10° NNW 02:57:04 45° W 02:57:15 45° W
Meteor 1-25 Rocket 4.5 02:57:03 48° WSW 02:58:05 54° WNW 03:03:46 10° N
MINOTAUR IV R/B 4.5 02:59:36 74° SSE 02:59:52 78° ESE 03:04:21 10° NNE
Landsat 4 4.4 03:01:34 46° NW 03:01:34 46° NW 03:04:29 10° NNW
Cosmos 1602 4.0 03:03:09 58° E 03:03:12 58° E 03:06:59 10° NNE
TIMED 4.4 03:03:09 73° W 03:03:18 74° WNW 03:07:40 10° NNE
USA 234 3.6 02:57:45 10° ESE 03:04:12 67° NE 03:10:41 10° NW
Cosmos 1934 Rocket 3.9 03:08:08 42° S 03:10:25 88° E 03:16:36 10° N
CENTAUR R/B 3.0 03:02:45 10° NW 03:10:42 86° WSW 03:19:02 10° SSE
NPP 3.6 03:06:16 10° N 03:11:39 75° WNW 03:13:04 50° SW
Cosmos 1954 Rocket 3.8 03:07:32 10° NNW 03:12:42 74° WSW 03:13:58 51° S
Okean 1 Rocket 3.4 03:16:19 47° W 03:16:35 48° W 03:20:55 10° N
CBERS 1 LM4 rocket 4.3 03:13:25 10° NNE 03:18:18 79° ESE 03:19:37 49° S
Okean 1-7 Rocket 3.9 03:19:37 10° NNW 03:24:02 49° W 03:24:24 48° WSW
CZ-2D R/B 3.4 03:20:20 10° NNE 03:25:21 36° E 03:28:56 17° SSE
Cosmos 489 Rocket 4.5 03:20:04 10° NNW 03:26:11 59° WSW 03:28:37 36° SSW
ERS-2 2.3 03:24:14 10° N 03:27:53 55° WNW 03:28:00 54° W
Meteor 2-14 Rocket 4.4 03:27:36 38° SSW 03:30:06 76° W 03:36:11 10° N
Cosmos 1025 Rocket 2.9 03:27:29 10° N 03:31:49 89° WSW 03:33:09 44° S
Timation 2 Rocket 4.4 03:26:46 10° NNW 03:32:49 59° ENE 03:38:41 10° SE
Cosmos 1023 Rocket 4.3 03:30:32 10° NNW 03:35:36 70° WSW 03:37:49 34° S
Cosmos 1455 Rocket 3.7 03:36:21 27° SSE 03:38:32 52° E 03:42:52 10° NNE
Okean O Rocket 4.1 03:36:09 10° NE 03:38:52 16° E 03:41:35 10° SE
ARIANE 5 R/B 2.6 03:35:19 10° NNE 03:40:19 68° ESE 03:42:54 29° S
Meteor 2-15 4.4 03:35:24 10° NNW 03:41:31 71° W 03:45:04 27° S
IRS-1C 4.3 03:37:22 10° N 03:42:36 57° WNW 03:44:45 34° SW
UNKNOWN OBJECT B 4.4 03:40:23 10° NNE 03:44:04 32° E 03:46:43 16° SSE
Cosmos 1420 Rocket 4.5 03:45:14 32° WSW 03:47:14 48° WNW 03:52:21 10° N
GP-B 4.2 03:44:23 10° NNW 03:48:09 27° W 03:48:48 26° W
Cosmos 1536 3.1 03:47:37 43° WSW 03:48:30 52° W 03:52:29 10° N
Cosmos 1605 Rocket 4.0 03:47:06 30° SSW 03:50:14 64° W 03:56:29 10° N
Cosmos 1356 3.4 03:50:06 53° SW 03:50:45 67° W 03:54:17 10° N
Cosmos 1844 Rocket 4.0 03:49:51 20° W 03:52:27 28° WNW 03:57:19 10° N
Okean 2 3.4 03:48:49 10° N 03:52:55 77° E 03:55:30 22° SSE
Meteor 1-19 Rocket 4.4 03:49:34 10° NNW 03:55:14 55° W 03:58:33 25° SSW
Cosmos 2123 Rocket 4.3 03:50:53 10° NNW 03:56:59 51° W 04:00:32 25° SSW
Cosmos 1140 Rocket 3.8 03:52:32 10° NNW 03:57:22 42° WSW 03:59:21 29° SSW
SL-16 R/B 2.6 03:51:19 10° SSE 03:57:33 85° ENE 04:03:48 10° NNW
ATLAS 2A CENTAUR R/B 4.0 03:54:19 25° SW 03:58:35 38° S 04:29:55 10° ESE
Cosmos 1331 Rocket 4.5 03:55:39 20° S 03:59:08 56° ESE 04:04:14 10° NNE
Resurs 1-4 Rocket 2.2 03:54:09 10° NNE 03:59:28 76° ESE 04:03:07 21° S
EO 1 Del DPAF 3.3 03:59:25 18° SSE 04:02:11 84° ENE 04:06:06 10° N
Cosmos 1544 Rocket 3.8 04:02:40 31° SW 04:04:29 54° W 04:08:48 10° N
ADEOS 4.2 04:01:45 10° N 04:06:36 40° WNW 04:09:11 24° WSW
COSMOS 2487 3.7 04:06:27 10° NW 04:09:22 25° W 04:09:22 25° W
Cosmos 1633 3.6 04:10:16 26° W 04:11:00 28° WNW 04:14:12 10° NNW
ATLAS 5 CENTAUR R/B 2.4 04:07:33 10° NW 04:13:36 67° WSW 04:20:00 10° SSE
USA 161 3.2 04:20:43 20° W 04:20:43 20° W 04:22:37 10° NW
USA 129 3.9 04:19:18 10° SE 04:21:06 25° ENE 04:22:51 10° NNE
Cosmos 2278 Rocket 3.2 04:18:39 18° WSW 04:22:02 32° WNW 04:27:07 10° N
Cosmos 2297 3.9 04:20:31 21° SW 04:24:19 60° WNW 04:29:58 10° NNE
Cosmos 2173 Rocket 3.9 04:19:29 12° S 04:25:06 87° W 04:31:19 10° N
Centaur AC-125 4.3 04:25:53 12° S 04:26:28 13° SSE 04:28:40 10° SE
Cosmos 1400 Rocket 4.1 04:26:04 19° WSW 04:27:32 24° WNW 04:30:47 10° NNW
CZ-2C R/B 4.4 04:23:53 10° SSE 04:28:34 60° ENE 04:33:17 10° N
CZ-2D R/B 3.3 04:33:12 10° N 04:37:14 80° WNW 04:40:56 12° SSW
Cosmos 1459 Rocket 4.1 04:31:33 12° SSW 04:37:29 68° W 04:43:46 10° N
Cosmos 1302 Rocket 4.1 04:33:34 11° S 04:38:34 76° ESE 04:43:49 10° NNE
Cosmos 1802 Rocket 3.9 04:34:37 10° SSW 04:40:44 75° W 04:46:53 10° N
Cosmos 2082 Rocket 2.2 04:36:21 10° NNW 04:42:03 69° WSW 04:47:41 10° SSE
CZ-4B R/B 3.6 04:36:50 10° NNE 04:42:31 67° ESE 04:48:06 10° S
BREEZE-M DEB (TANK) 1.7 04:42:38 17° WSW 04:44:38 82° NNW 04:47:51 10° ENE
USA 234 3.8 04:41:44 10° S 04:47:26 32° SW 04:53:10 10° WNW
Cosmos 2100 Rocket 4.3 04:42:55 12° SSW 04:48:38 51° W 04:54:48 10° N
PSLV R/B 3.6 04:51:38 15° SW 04:54:21 54° SSE 04:57:38 10° E
APEX 4.4 04:53:09 12° WSW 04:55:10 22° NW 04:57:56 10° N
Cosmos 2084 3.9 04:53:54 10° SSW 04:57:38 48° ESE 05:01:21 10° NE
Cosmos 1743 3.5 04:54:15 10° S 04:57:57 53° E 05:01:42 10° NNE
Cosmos 1315 Rocket 4.5 04:55:24 12° WSW 04:57:59 19° WNW 05:00:57 10° NNW
OAO 3 Copernicus 4.4 04:53:09 10° W 04:58:05 57° S 05:03:01 10° ESE
SME Rocket 4.1 04:56:02 11° SSW 04:58:53 23° W 05:02:09 10° NW
Cosmos 1500 3.2 04:55:43 10° SSW 04:59:34 75° W 05:03:29 10° N
Cosmos 1602 Rocket 4.1 04:56:09 10° NNW 05:00:11 38° W 05:04:13 10° SSW
Cosmos 1515 3.6 04:56:36 10° NNW 05:00:25 72° W 05:04:12 10° S
CENTAUR R/B 4.3 04:55:35 10° WNW 05:00:35 18° WSW 05:05:41 10° SW
Cosmos 1346 Rocket 2.9 04:59:10 10° NNW 05:03:10 59° W 05:07:05 10° S
CZ-2D R/B 3.3 05:00:39 10° N 05:05:15 28° WNW 05:09:51 10° SW
Cosmos 2058 Rocket 4.3 05:05:39 10° SSE 05:09:46 43° E 05:13:53 10° NNE
Okean-O 3.4 05:05:26 10° NNE 05:09:48 54° E 05:14:08 10° S
Cosmos 1066 Rocket 4.1 05:06:04 10° NNW 05:11:33 80° W 05:16:54 10° S
Cosmos 1486 Rocket 4.2 05:10:05 10° NNW 05:15:16 53° WSW 05:20:25 10° S
Okean O Rocket 2.2 05:11:20 10° N 05:15:24 40° WNW 05:19:27 10° SW
Cosmos 1975 4.1 05:13:23 10° SW 05:16:42 25° WNW 05:20:03 10° NNW
CZ-4B R/B 3.3 05:13:11 10° N 05:17:40 62° WNW 05:22:00 10° SSW
Tsikada Rocket 4.0 05:11:50 10° N 05:18:00 79° W 05:24:12 10° S
NOSS 8 (F) 4.5 05:15:03 10° SW 05:18:32 82° WNW 05:22:11 10° NNE
ARIANE 5 R/B 4.4 05:16:23 10° NNW 05:18:51 14° WNW 05:21:20 10° W
Cosmos 1833 Rocket 3.1 05:14:24 10° NW 05:19:38 41° WSW 05:24:51 10° S
CZ-3B DEB 4.3 05:13:21 10° NW 05:39:07 88° SW 05:46:45 10° SE
